Home > Weather > Perm > Past weeks

Flag for Russia Past Weather in Perm, Russia — Yesterday and Last 2 Weeks

Now
54 °F

Clear.


Feels Like: 52 °F
Forecast: 52 / 69 °F
Wind: 6 mph from Southwest

Location: Perm'/Bolshoe Savino

Current Time: Jun 27, 2016 at 3:51:46 AM

Latest Report: Jun 27, 2016 at 3:30 AM


Visibility: 10 mi

Pressure: 29.71 "Hg

Humidity: 88%

Dew Point: 50 °F

Location of PermLocation

Past Weather in Perm — Graph

°F

Perm Temperature Yesterday

Maximum temperature yesterday: 75 °F (at 3:30 PM)
Minimum temperature yesterday: 50 °F (at 2:30 AM)
Average temperature yesterday: 64 °F

High & Low Weather Summary for the Past Weeks

 TemperatureHumidityPressure
High86 °F (Jun 20, 5:00 PM)100% (Jun 21, 4:00 AM)30.18 "Hg (Jun 21, 4:00 AM)
Low45 °F (Jun 18, 4:00 AM)22% (Jun 17, 2:00 PM)29.71 "Hg (Jun 13, 5:30 PM)
Average67 °F60%30.00 "Hg
* Reported Jun 12 2:00 AM — Jun 27 2:30 AM, Perm, Weather by CustomWeather, © 2016

Note: Actual official high and low records may vary slightly from our data, if they occured in-between our weather recording intervals... More about our weather records

Advertising

Perm Weather History for the Previous 24 Hours

Scroll right to see more
 ConditionsComfort  
Time TempWeatherWind HumidityBarometerVisibility
2:30 AM
Mon, Jun 27
54 °FClear.6 mph88%29.74 "Hg10 mi
2:00 AM55 °FClear.3 mph88%29.74 "Hg10 mi
1:00 AM57 °FClear.1 mph82%29.77 "Hg10 mi
12:00 AM55 °FPassing clouds.6 mph88%29.77 "HgN/A
11:30 PM
Sun, Jun 26
57 °FClear.6 mph88%29.80 "Hg10 mi
11:00 PM61 °FSunny.6 mph72%29.80 "Hg10 mi
10:30 PM64 °FSunny.6 mph64%29.80 "Hg10 mi
10:00 PM64 °FBroken clouds.3 mph68%29.80 "HgN/A
9:30 PM66 °FBroken clouds.8 mph60%29.80 "HgN/A
9:00 PM68 °FBroken clouds.6 mph56%29.80 "HgN/A
8:30 PM72 °FBroken clouds.3 mph50%29.80 "HgN/A
8:00 PM72 °FBroken clouds.6 mph50%29.83 "HgN/A
7:30 PM72 °FBroken clouds.8 mph47%29.83 "HgN/A
7:00 PM72 °FBroken clouds.6 mph44%29.83 "HgN/A
6:30 PM73 °FBroken clouds.3 mph38%29.83 "HgN/A
6:00 PM73 °FBroken clouds.3 mph33%29.83 "HgN/A
5:30 PM75 °FPassing clouds.3 mph34%29.86 "HgN/A
5:00 PM73 °FBroken clouds.3 mph41%29.86 "HgN/A
4:30 PM72 °FBroken clouds.1 mph36%29.86 "HgN/A
4:00 PM72 °FBroken clouds.3 mph38%29.86 "HgN/A
3:30 PM75 °FPartly sunny.3 mph31%29.89 "HgN/A
3:00 PM72 °FPartly sunny.6 mph41%29.89 "HgN/A
2:30 PM72 °FPartly sunny.6 mph41%29.89 "HgN/A
2:00 PM70 °FPartly sunny.3 mph46%29.89 "HgN/A
1:30 PM70 °FBroken clouds.3 mph46%29.92 "HgN/A
1:00 PM68 °FSprinkles. Broken clouds.8 mph49%29.92 "HgN/A
12:30 PM72 °FSunny.8 mph44%29.92 "Hg10 mi
12:00 PM72 °FSunny.8 mph41%29.92 "Hg10 mi
11:30 AM72 °FSunny.8 mph41%29.95 "Hg10 mi
11:00 AM70 °FSunny.3 mph46%29.95 "Hg10 mi
10:30 AM68 °FPassing clouds.3 mph53%29.95 "HgN/A
10:00 AM64 °FPassing clouds.3 mph60%29.95 "HgN/A
9:30 AM64 °FSunny.6 mph60%29.95 "Hg10 mi
9:00 AM64 °FSunny.8 mph60%29.95 "Hg10 mi
8:30 AM63 °FPassing clouds.3 mph64%29.98 "HgN/A
8:00 AM59 °FSunny.3 mph72%29.95 "Hg10 mi
7:30 AM59 °FSunny.3 mph72%29.95 "Hg10 mi
7:00 AM59 °FSunny.6 mph72%29.98 "Hg10 mi
6:30 AM57 °FSunny.3 mph77%29.95 "Hg10 mi
6:00 AM55 °FSunny.1 mph82%29.98 "Hg10 mi
5:30 AM52 °FSunny.1 mph82%29.98 "Hg10 mi
5:00 AM52 °FClear.6 mph82%29.95 "Hg10 mi
4:30 AM52 °FClear.3 mph82%29.95 "Hg10 mi
4:00 AM52 °FClear.6 mph82%29.98 "Hg10 mi
3:30 AM52 °FClear.3 mph82%29.98 "Hg10 mi
3:00 AM52 °FClear.6 mph82%29.98 "Hg10 mi
Weather by CustomWeather, © 2016

See weather overviewHow to use our weather pages